STARLINK-2268

Last updated on April 24, 2021, 12:02 a.m. UTC

1 48030U 21024BF  21113.25001157 -.01178860  00000-0 -18933-1 0  9991
2 48030  53.0466  56.1084 0001110  71.2205 243.9493 15.55390203  1823
UTC
Height (km)
Latitude
Longitude
Inclination
Orbital Period
UTC large
Height (km)
Speed (km/s)
/
Latitude / Longitude
Inclination (degrees)
Orbital Period (minutes)
Azimuth
Elevation
Range (km)
Doppler Factor
iOS Compass Heading
iOS Angle

Next 30 passes for location: Hong Kong

Rise time Rise Azimuth (degrees) Set time Set Azimuth (degrees) Duration Max altitude (degrees)

No matching passes for this satellites